TimeEDT,TemperatureF,Dew PointF,Humidity,Sea Level PressureIn,VisibilityMPH,Wind Direction,Wind SpeedMPH,Gust SpeedMPH,PrecipitationIn,Events,Conditions,WindDirDegrees,DateUTC
12:58 AM,68.5,68.5,100,29.98,10.0,South,2.3,-,N/A,,Mostly Cloudy,170,2013-11-01 04:58:00
1:58 AM,68.4,68.4,100,29.96,10.0,SSE,3.5,-,N/A,,Mostly Cloudy,160,2013-11-01 05:58:00
2:58 AM,67.6,67.6,100,29.94,10.0,SSE,2.3,-,N/A,,Partly Cloudy,150,2013-11-01 06:58:00
3:58 AM,66.9,66.9,100,29.93,10.0,South,2.3,-,N/A,,Partly Cloudy,180,2013-11-01 07:58:00
4:58 AM,66.6,66.6,100,29.91,10.0,South,3.5,-,N/A,,Partly Cloudy,170,2013-11-01 08:58:00
5:58 AM,66.2,66.2,100,29.89,10.0,South,5.8,-,N/A,,Partly Cloudy,170,2013-11-01 09:58:00
6:58 AM,66.2,66.2,100,29.88,10.0,South,4.6,-,N/A,,Scattered Clouds,180,2013-11-01 10:58:00
7:58 AM,66.2,66.2,100,29.90,10.0,South,3.5,-,N/A,,Mostly Cloudy,170,2013-11-01 11:58:00
8:58 AM,68.2,68.2,100,29.93,10.0,South,4.6,-,N/A,,Overcast,170,2013-11-01 12:58:00
9:58 AM,71.1,68.9,93,29.93,10.0,South,4.6,-,N/A,,Overcast,180,2013-11-01 13:58:00
10:58 AM,73.2,70.2,90,29.90,10.0,SSE,8.1,-,N/A,,Mostly Cloudy,160,2013-11-01 14:58:00
11:58 AM,76.8,71.8,84,29.90,10.0,SSW,13.8,19.6,N/A,,Overcast,200,2013-11-01 15:58:00
12:58 PM,81.1,72.7,75,29.86,10.0,SSW,12.7,18.4,N/A,,Mostly Cloudy,200,2013-11-01 16:58:00
1:58 PM,80.6,72.7,77,29.83,10.0,SSW,15.0,18.4,N/A,,Partly Cloudy,200,2013-11-01 17:58:00
2:29 PM,78.8,73.4,83,29.81,10.0,Variable,5.8,-,N/A,Rain,Light Rain,0,2013-11-01 18:29:00
2:43 PM,78.8,71.6,78,29.80,10.0,South,5.8,-,N/A,,Partly Cloudy,190,2013-11-01 18:43:00
2:58 PM,79.2,72.7,80,29.81,10.0,South,9.2,16.1,0.00,,Partly Cloudy,190,2013-11-01 18:58:00
3:58 PM,77.7,72.9,85,29.80,10.0,South,10.4,-,N/A,,Scattered Clouds,180,2013-11-01 19:58:00
4:58 PM,76.1,72.9,90,29.78,10.0,South,5.8,-,N/A,,Clear,170,2013-11-01 20:58:00
5:14 PM,75.2,73.4,94,29.77,10.0,South,5.8,-,N/A,Rain,Light Rain,170,2013-11-01 21:14:00
5:58 PM,74.1,74.1,100,29.79,10.0,South,4.6,-,0.00,Rain,Light Rain,180,2013-11-01 21:58:00
6:58 PM,72.7,72.7,100,29.78,10.0,Calm,Calm,-,0.02,Rain,Light Rain,0,2013-11-01 22:58:00
7:30 PM,73.4,73.4,100,29.78,10.0,Calm,Calm,-,N/A,,Mostly Cloudy,0,2013-11-01 23:30:00
7:35 PM,73.4,73.4,100,29.78,10.0,Calm,Calm,-,N/A,Rain,Light Rain,0,2013-11-01 23:35:00
7:58 PM,72.1,72.0,99,29.79,10.0,SE,2.3,-,0.01,Rain,Light Rain,130,2013-11-01 23:58:00
8:18 PM,71.6,71.6,100,29.78,9.0,SSE,4.6,-,N/A,Rain,Light Rain,150,2013-11-02 00:18:00
8:48 PM,71.6,71.6,100,29.77,10.0,SSE,8.1,-,N/A,Rain,Light Rain,150,2013-11-02 00:48:00
8:58 PM,71.6,71.6,100,29.78,10.0,SSE,8.1,-,0.08,Rain,Light Rain,160,2013-11-02 00:58:00
9:28 PM,71.6,71.6,100,29.78,9.0,South,9.2,17.3,N/A,Rain,Rain,180,2013-11-02 01:28:00
9:38 PM,71.6,71.6,100,29.79,10.0,SSW,8.1,-,N/A,Rain,Rain,210,2013-11-02 01:38:00
9:43 PM,71.6,71.6,100,29.79,7.0,SSW,9.2,-,N/A,Rain,Rain,200,2013-11-02 01:43:00
9:53 PM,71.6,71.6,100,29.78,5.0,SSW,9.2,-,N/A,Rain,Heavy Rain,200,2013-11-02 01:53:00
9:58 PM,72.3,72.3,100,29.79,5.0,SSW,8.1,-,0.10,Rain,Rain,200,2013-11-02 01:58:00
10:03 PM,71.6,71.6,100,29.78,6.0,SSW,6.9,-,N/A,Rain,Rain,210,2013-11-02 02:03:00
10:28 PM,71.6,71.6,100,29.78,10.0,SSW,8.1,-,N/A,Rain,Light Rain,200,2013-11-02 02:28:00
10:30 PM,71.6,71.6,100,29.79,10.0,SSW,8.1,-,N/A,,Overcast,200,2013-11-02 02:30:00
10:33 PM,71.6,71.6,100,29.79,9.0,SSW,6.9,-,N/A,Rain,Rain,210,2013-11-02 02:33:00
10:43 PM,71.6,71.6,100,29.78,4.0,SSW,4.6,-,N/A,Rain,Rain,200,2013-11-02 02:43:00
10:48 PM,71.6,71.6,100,29.78,5.0,SSW,4.6,-,N/A,Rain,Light Rain,200,2013-11-02 02:48:00
10:53 PM,71.6,71.6,100,29.78,7.0,SSW,4.6,-,N/A,Rain,Light Rain,200,2013-11-02 02:53:00
10:58 PM,71.6,71.6,100,29.79,9.0,SSW,3.5,-,0.12,Rain,Light Rain,210,2013-11-02 02:58:00
11:03 PM,71.6,71.6,100,29.77,9.0,SW,3.5,-,N/A,Rain,Light Rain,220,2013-11-02 03:03:00
11:18 PM,71.6,71.6,100,29.81,5.0,West,10.4,-,N/A,Rain,Heavy Rain,270,2013-11-02 03:18:00
11:23 PM,71.6,71.6,100,29.79,1.0,NW,9.2,-,N/A,Rain,Heavy Rain,310,2013-11-02 03:23:00
11:28 PM,71.6,71.6,100,29.79,0.8,NW,10.4,-,N/A,Rain,Heavy Rain,310,2013-11-02 03:28:00
11:33 PM,69.8,69.8,100,29.79,1.8,West,9.2,-,N/A,Rain,Heavy Rain,280,2013-11-02 03:33:00
11:38 PM,69.8,69.8,100,29.79,3.0,WNW,8.1,-,N/A,Rain,Heavy Rain,290,2013-11-02 03:38:00
11:43 PM,69.8,69.8,100,29.79,4.0,WNW,9.2,-,N/A,Rain,Heavy Rain,290,2013-11-02 03:43:00
11:48 PM,69.8,69.8,100,29.80,6.0,West,10.4,-,N/A,Rain,Heavy Rain,280,2013-11-02 03:48:00
11:58 PM,69.8,69.8,100,29.81,7.0,WSW,9.2,-,0.52,Rain,Heavy Rain,250,2013-11-02 03:58:00